Theta_e
299 299 300 299 300 300 299 300 301 302 303 304 305 305 306 305 306 307 307 307 305 303 303 302 301 299 298 297 296 295 295 300 298 301 305 304 302 301 301 302 303 302 303
298 298 299 300 300 299 300 301 302 300 302 304 307 307 304 302 301 304 303 303 302 302 302 302 301 303 298 297 296 295 294 298 301 300 303 302 301 302 301 300 301 303 302
299 299 299 299 299 299 299 300 301 302 304 305 304 303 302 301 299 301 301 300 298 300 301 301 300 300 297 296 295 295 295 298 303 302 301 303 302 302 300 300 299 299 301
300 299 300 301 301 301 300 301 302 302 301 303 302 303 300 298 299 300 300 299 298 298 301 302 300 299 297 296 296 301 301 302 303 302 301 302 302 301 299 297 296 298 296
302 302 302 303 304 303 303 303 303 302 302 301 300 299 298 298 299 297 297 296 294 297 300 301 302 306 307 304 300 304 303 302 303 301 301 301 301 298 297 298 296 297 297
303 303 303 301 299 301 301 301 302 301 300 299 296 299 299 299 301 301 299 294 297 296 296 298 301 302 303 307 308 309 307 302 302 301 301 299 298 297 297 298 296 295 293
302 302 300 300 300 299 300 299 299 299 299 299 300 300 298 298 300 301 302 297 297 297 295 294 298 303 304 304 305 307 307 307 307 303 301 300 298 298 297 297 295 295 294
301 300 300 301 300 300 299 299 299 298 298 299 301 298 296 299 300 300 302 298 296 301 301 301 301 302 303 304 304 302 302 302 302 303 301 300 300 298 296 296 295 295 296
299 300 299 300 299 299 299 299 300 299 300 300 301 301 299 300 299 298 300 301 301 301 301 301 301 302 301 302 303 302 302 301 305 304 302 301 300 300 298 295 294 292 292
301 300 298 299 299 298 299 299 300 301 301 301 301 301 302 301 298 298 301 302 300 300 300 300 299 298 298 300 302 302 297 297 297 297 298 298 298 300 304 301 297 292 293
301 302 301 301 300 299 299 299 300 300 301 301 301 301 302 301 301 298 298 302 300 301 300 299 298 296 296 297 299 300 297 298 297 293 293 292 293 294 296 296 296 295 295
302 301 300 300 300 300 299 299 299 299 299 300 300 301 301 301 300 299 298 298 301 300 298 297 296 296 295 295 296 295 296 296 293 293 292 292 292 293 295 295 296 296 297
302 300 300 300 300 300 299 299 299 299 299 299 299 299 297 298 299 298 297 298 300 301 298 298 297 295 296 297 296 295 295 293 293 293 292 293 296 298 299 300 297 299 300
300 300 301 300 300 300 300 301 300 298 298 298 298 298 299 300 299 299 301 301 300 299 299 297 298 298 297 299 298 298 296 293 293 293 293 295 298 300 299 300 296 295 295
301 302 301 301 300 300 301 299 300 298 296 296 296 298 298 298 299 295 295 299 297 296 298 296 298 297 299 300 301 300 300 296 296 295 295 296 297 299 300 296 296 297 294
299 297 296 299 300 300 300 300 298 297 295 293 293 294 299 295 295 294 293 293 293 294 301 297 297 298 300 301 301 302 300 301 302 300 299 301 301 301 302 301 299 298 297
297 298 298 300 300 301 301 300 299 301 299 296 295 295 294 294 293 294 293 294 293 295 296 296 296 296 295 295 294 295 294 295 296 296 298 299 301 303 300 299 297 297 297
302 300 304 304 303 303 302 300 301 300 300 299 298 296 293 293 293 293 293 294 293 293 290 292 291 292 291 291 291 292 292 293 293 294 295 295 297 300 298 294 293 292 293
302 301 303 303 301 301 303 302 303 303 302 301 298 296 296 294 292 293 293 292 290 290 289 289 289 290 289 290 290 290 291 291 292 293 294 294 294 296 294 292 291 290 290
301 299 298 299 301 302 303 302 302 301 297 296 294 294 294 294 294 293 293 291 289 288 288 287 287 287 287 287 288 288 289 290 291 292 293 294 294 293 293 293 292 291 290
301 300 297 303 302 300 299 298 297 294 293 292 292 291 286 292 290 289 288 288 288 288 287 286 285 285 286 287 287 288 288 289 289 290 292 293 293 293 293 292 293 292 291
301 302 302 301 300 298 295 295 294 293 293 293 293 293 288 291 289 288 287 287 286 286 286 286 286 286 286 287 287 287 287 287 288 288 290 293 293 293 293 292 292 292 291
303 302 300 297 297 294 294 293 293 293 293 293 293 294 293 291 289 288 288 287 287 287 287 288 287 286 286 287 287 286 285 286 286 287 288 292 292 292 292 291 291 290 290
300 299 298 296 294 294 294 293 293 292 293 292 292 291 291 291 290 289 288 288 288 288 288 287 286 284 285 285 285 285 285 285 286 288 291 291 291 291 291 290 290 290 289
303 302 298 295 294 293 293 293 293 292 292 291 290 289 288 289 288 289 288 288 289 288 288 287 285 284 284 284 284 284 284 284 286 285 292 291 290 290 290 289 289 288 287
303 303 301 295 294 293 293 293 292 291 291 290 289 288 288 288 288 289 289 290 290 288 286 285 285 284 284 284 284 283 284 284 285 286 290 290 288 288 288 288 288 286 286
Wind_Speed
6 6 6 6 7 6 5 5 6 5 5 5 5 4 5 5 5 4 6 5 1 1 1 2 3 0 1 0 1 1 2 2 2 3 1 1 1 2 3 4 4 4 4
6 4 5 5 5 6 7 6 6 5 5 6 5 6 6 5 6 5 4 5 5 5 4 2 2 3 1 0 1 3 2 2 2 6 1 1 0 1 2 3 3 3 3
5 5 6 6 6 7 5 5 6 5 5 6 6 6 6 5 6 5 4 4 5 5 5 3 2 2 1 1 2 3 2 2 3 1 2 1 0 1 2 3 2 4 3
5 6 6 6 6 5 5 5 5 5 5 5 5 6 5 5 4 5 5 4 4 3 4 1 0 1 2 2 3 5 2 3 2 1 2 2 1 2 2 2 3 2 3
5 5 5 6 6 6 7 6 6 6 6 5 5 5 4 4 4 6 4 3 2 2 3 4 4 5 6 3 2 4 2 1 1 2 2 2 1 2 1 2 2 3 3
5 6 6 6 6 6 6 7 6 5 4 4 4 4 4 4 11 8 2 1 2 5 4 4 4 5 5 6 6 7 4 1 1 1 2 2 2 2 1 2 1 2 3
5 6 6 6 7 7 6 6 6 5 4 4 5 4 5 6 13 9 6 3 4 4 4 4 3 3 4 3 3 5 5 3 3 2 2 2 2 1 1 1 2 2 3
6 6 6 7 6 6 6 6 6 4 4 4 4 5 5 5 11 8 8 5 3 3 4 4 4 4 4 3 3 5 5 5 5 4 4 3 3 2 1 1 2 4 5
5 6 6 7 7 7 8 7 5 4 4 4 4 5 6 6 12 8 5 4 4 5 5 5 4 4 6 6 4 4 4 4 4 6 4 2 1 1 1 2 3 3 3
6 5 5 5 6 7 7 7 5 4 4 4 5 6 8 6 11 10 7 4 5 4 5 5 11 7 7 6 4 4 5 4 5 5 4 3 3 3 4 4 2 2 3
5 6 6 6 5 6 5 5 6 6 5 5 5 5 6 7 7 10 10 5 4 3 4 4 5 9 7 8 7 5 3 4 4 3 3 3 2 3 2 3 4 4 2
5 6 7 6 5 5 6 7 7 6 6 7 6 5 6 7 9 9 9 7 7 4 4 3 3 7 8 8 6 6 7 5 3 3 2 2 2 3 3 4 5 5 5
5 5 5 5 5 5 6 7 5 6 5 5 5 5 5 5 6 10 9 10 9 4 3 4 8 6 5 3 5 5 5 4 4 4 4 3 3 4 5 5 3 4 6
5 5 4 4 5 4 4 5 5 5 6 5 5 5 4 5 5 6 5 6 7 6 6 5 6 6 5 4 4 4 3 2 2 3 3 4 4 2 3 1 2 3 3
5 5 5 4 4 4 4 3 4 3 2 2 2 1 3 4 4 5 5 5 4 4 4 3 3 3 4 4 4 3 3 3 2 3 2 4 4 3 3 0 1 2 1
5 4 4 3 4 5 4 4 4 3 3 4 7 1 2 8 11 11 9 8 7 6 4 4 4 4 5 5 6 7 5 6 3 3 3 2 3 4 3 2 1 3 3
3 3 2 4 4 4 3 4 5 6 9 8 8 7 5 7 7 13 11 16 17 9 7 6 6 7 7 6 5 4 5 5 5 4 4 5 3 3 4 4 4 2 3
6 11 7 5 4 4 4 4 3 3 4 5 9 8 12 15 16 16 11 8 8 9 4 5 5 5 5 5 5 5 5 5 5 5 4 5 5 3 4 4 4 4 3
3 3 2 4 3 3 3 2 2 4 4 3 4 7 8 11 11 15 13 8 4 5 5 5 4 5 5 5 5 5 5 5 5 5 5 5 5 4 4 4 5 6 5
5 7 3 3 3 4 4 4 4 4 4 4 5 4 5 5 8 7 7 5 5 5 5 5 5 5 5 5 6 5 5 6 7 6 5 5 5 4 4 4 4 4 4
3 5 7 3 4 3 2 3 4 4 4 4 3 3 4 6 5 5 5 5 5 4 5 4 5 5 5 5 6 6 5 5 5 5 5 5 5 5 5 3 4 4 4
4 5 5 4 3 4 4 4 4 4 4 4 3 3 5 5 5 4 5 5 4 4 4 4 4 4 5 5 6 6 6 5 6 6 6 6 5 5 5 4 5 5 4
4 5 5 3 3 5 5 4 4 4 4 4 3 4 4 4 4 5 4 4 4 4 4 5 5 5 5 5 5 4 5 5 5 5 5 5 5 5 5 5 5 5 5
3 4 4 3 3 4 4 4 4 5 5 5 4 4 4 3 4 4 4 4 4 4 5 5 5 7 7 7 6 5 5 6 5 5 6 4 5 6 5 5 4 6 5
1 3 4 2 3 4 4 4 4 4 4 4 4 3 3 4 4 4 4 4 4 5 6 5 5 7 8 10 11 11 10 9 7 6 4 6 7 8 5 5 5 4 6
3 3 2 3 3 3 4 4 3 3 4 3 4 4 4 4 4 4 3 4 4 5 6 4 7 9 10 9 11 12 12 12 10 9 5 5 6 6 5 6 8 4 6
Wind_Direction
342 330 318 322 320 325 332 326 327 332 343 350 357 20 49 27 26 48 50 14 359 71 14 234 246 215 145 242 2 327 280 272 288 286 239 245 43 17 350 350 355 324 318
307 314 325 336 343 7 2 340 335 339 344 356 4 52 49 38 26 41 30 2 11 19 354 359 19 104 97 214 320 298 270 269 263 284 284 271 56 29 338 342 321 300 323
344 23 7 354 2 2 339 346 340 347 21 29 38 44 40 26 13 2 10 355 3 2 354 11 21 138 283 248 252 279 252 283 264 299 306 259 161 39 353 310 325 323 326
15 28 6 1 1 349 337 357 18 13 39 32 28 30 26 13 2 353 348 342 342 341 323 258 64 10 262 273 270 267 267 283 306 304 288 298 347 102 55 344 332 345 330
38 32 9 351 342 349 355 2 7 17 14 19 33 25 9 352 343 331 319 308 276 324 30 28 35 30 5 304 267 297 269 349 340 318 313 8 23 39 15 295 322 306 297
30 21 9 357 344 355 352 350 354 360 4 354 359 355 354 347 332 334 274 251 30 51 22 360 3 15 348 343 25 41 71 125 287 330 349 51 32 48 36 246 308 326 324
17 18 6 351 6 355 354 352 353 347 355 359 2 358 4 337 349 24 78 58 57 40 28 10 352 357 354 358 36 55 50 55 29 350 34 23 49 13 110 240 295 347 284
16 1 358 2 356 348 343 349 354 358 6 349 358 11 14 345 355 24 48 49 51 31 19 1 359 350 4 53 64 55 44 38 30 36 54 39 58 67 84 196 283 292 279
358 7 1 356 357 349 1 356 4 339 347 7 360 5 19 4 5 15 30 25 24 25 23 12 5 21 20 49 62 55 37 24 35 56 72 65 354 310 170 15 333 346 315
355 355 356 350 353 354 354 355 355 1 8 4 13 13 19 15 18 33 26 21 35 23 20 21 30 30 26 40 55 38 40 359 13 15 14 6 360 301 281 212 249 292 290
348 358 3 5 10 8 355 2 5 8 15 20 16 16 22 27 24 27 25 29 17 7 11 15 22 21 15 27 33 36 1 330 357 11 354 341 320 301 286 248 219 203 235
4 9 7 360 9 15 12 4 8 9 16 17 15 18 20 13 20 5 13 25 16 28 16 357 30 7 15 29 36 19 23 38 14 1 351 323 302 283 271 275 256 234 222
359 4 359 360 10 16 15 15 10 7 17 20 19 24 6 356 5 4 11 26 35 50 33 9 1 29 68 42 19 38 37 14 0 1 336 297 265 280 294 286 268 261 254
359 353 345 352 352 19 11 8 17 19 31 34 29 23 1 10 7 360 8 12 15 19 356 351 2 359 359 0 359 335 311 307 295 290 271 274 284 319 273 258 327 313 314
4 7 16 10 19 23 26 22 18 23 22 19 14 330 2 3 316 290 290 325 335 312 325 1 7 352 350 351 331 327 330 318 330 288 308 315 302 335 310 28 233 289 290
25 17 17 22 20 22 15 17 11 344 44 265 260 252 301 245 295 311 330 348 18 2 60 21 7 9 16 360 355 358 4 344 335 307 301 279 307 332 309 335 234 281 294
44 356 32 43 46 27 9 31 16 332 327 313 335 342 342 278 16 37 43 56 35 30 38 26 32 23 7 3 8 355 343 328 320 340 339 330 354 319 357 344 336 321 310
37 27 4 4 354 356 353 347 357 31 338 344 350 16 23 39 46 39 17 54 32 29 22 28 21 8 357 360 352 352 328 335 356 354 354 352 4 21 14 2 356 338 335
20 57 342 322 322 343 352 342 11 6 26 28 15 16 3 9 42 43 39 58 43 32 10 19 5 5 355 346 342 340 340 347 339 351 358 4 359 18 10 10 350 343 354
345 348 2 346 348 3 5 3 10 27 54 48 48 8 338 18 41 32 32 31 38 31 15 15 358 354 353 352 348 344 349 7 5 4 351 355 354 6 19 8 6 357 351
346 338 330 351 13 21 25 33 52 63 78 68 46 2 1 78 54 40 28 28 28 18 10 9 357 354 355 353 353 354 352 345 352 347 348 347 351 1 347 9 24 17 11
339 335 346 352 343 26 58 83 80 77 72 81 44 30 42 67 61 52 41 32 20 19 7 5 4 0 353 351 347 350 346 345 344 350 344 341 349 358 7 15 15 15 10
326 336 346 2 68 88 70 58 80 86 80 68 66 69 56 68 63 53 46 28 19 17 4 11 7 1 355 348 346 344 344 334 315 306 317 337 353 360 10 22 12 10 7
337 1 22 37 73 91 91 90 77 71 75 65 59 60 62 66 69 58 43 26 24 17 13 14 8 6 356 356 348 342 336 326 306 300 314 350 15 5 25 29 13 11 9
164 73 53 72 82 91 98 93 89 79 74 70 64 60 59 67 67 58 42 33 27 25 19 9 7 358 359 358 0 353 338 334 339 329 5 38 38 24 20 19 6 2 14
49 53 74 129 127 134 126 120 107 97 88 71 65 56 61 64 55 53 40 38 32 27 15 4 5 6 3 5 359 350 354 359 3 359 12 38 38 23 23 21 18 12 8